Flag for Israel Weather past 2 weeks in Hadera, Israel

Now
81 °F

Clear.


Feels Like: 84 °F
Forecast: 74 / 92 °F
Wind: No wind

Location: Dov Airport

Current Time: Sep 16, 2014 at 10:57:24 PM

Latest Report: Sep 16, 2014 at 9:50 PM


Visibility: 10 mi

Pressure: 29.83 "Hg

Humidity: 70%

Dew point: 70 °F

Location of HaderaLocation

Historic Weather in Hadera — Graph

°F

Hadera temperature yesterday

Maximum temperature yesterday: 86 °F (at 9:50 AM)
Minimum temperature yesterday: 77 °F (at 5:50 AM)
Average temperature yesterday: 83 °F

Past Weeks' High & Low Weather Summary

 TemperatureHumidityPressure
High88 °F (Sep 2, 2:50 PM)83% (Sep 5, 4:50 AM)29.92 "Hg (Sep 5, 4:50 AM)
Low75 °F (Sep 10, 6:50 AM)52% (Sep 2, 9:50 AM)29.71 "Hg (Sep 5, 4:50 AM)
Average83 °F63%29.83 "Hg
* Reported Sep 1 8:50 PM — Sep 16 8:50 PM, Hadera, Weather by CustomWeather, © 2014

Note: Actual official high and low records may vary slightly from our data, if they occured in-between our weather recording intervals... More about our weather records

Advertising

Hadera weather history for previous 24 hours

 ConditionsComfort  
Time TempWeatherWind HumidityBarometerVisibility
8:50 PM
Sep 16
81 °FClear.3 mph70%29.83 "Hg10 mi
7:50 PM82 °FClear.5 mph66%29.83 "Hg10 mi
6:50 PM82 °FSunny.6 mph66%29.83 "Hg10 mi
5:50 PM84 °FPassing clouds.8 mph62%29.83 "HgN/A
4:50 PM84 °FPassing clouds.9 mph62%29.83 "HgN/A
3:50 PM86 °FPassing clouds.10 mph59%29.83 "HgN/A
2:50 PM86 °FPassing clouds.10 mph59%29.83 "HgN/A
1:50 PM86 °FPassing clouds.10 mph62%29.83 "HgN/A
12:50 PM84 °FPassing clouds.13 mph66%29.86 "HgN/A
11:50 AM84 °FPassing clouds.9 mph62%29.86 "HgN/A
10:50 AM86 °FPassing clouds.8 mph59%29.86 "HgN/A
9:50 AM84 °FScattered clouds.7 mph62%29.86 "HgN/A
8:50 AM82 °FPassing clouds.6 mph66%29.83 "HgN/A
7:50 AM79 °FPassing clouds.7 mph74%29.83 "HgN/A
6:50 AM75 °FPassing clouds.6 mph78%29.83 "HgN/A
5:50 AM75 °FPassing clouds.5 mph78%29.83 "HgN/A
10:50 PM
Sep 15
81 °FPassing clouds.5 mph74%29.86 "HgN/A
Weather by CustomWeather, © 2014

See weather overviewHow to use our weather pages